Flag Weather past 2 weeks in Boulogne-Billancourt, France

Now
52 °F

Passing clouds.


Feels Like: 48 °F
Forecast: 46 / 49 °F
Wind: 12 mph from North

Location: Paris-Orly

Current Time: Nov 24, 2014 at 3:46:29 AM

Latest Report: Nov 24, 2014 at 3:00 AM


Visibility: N/A

Pressure: 30.12 "Hg

Humidity: 88%

Dew point: 48 °F

Location of Boulogne-BillancourtLocation

Historic Weather in Boulogne-Billancourt — Graph

°F

Boulogne-Billancourt temperature yesterday

Maximum temperature yesterday: 59 °F (at 2:00 PM)
Minimum temperature yesterday: 43 °F (at 8:00 AM)
Average temperature yesterday: 52 °F

Past Weeks' High & Low Weather Summary

 TemperatureHumidityPressure
High61 °F (Nov 11, 2:00 PM)100% (Nov 10, 3:00 AM)30.21 "Hg (Nov 10, 3:00 AM)
Low36 °F (Nov 19, 3:30 AM)55% (Nov 11, 2:00 PM)29.45 "Hg (Nov 16, 2:00 PM)
Average49 °F88%29.79 "Hg
* Reported Nov 9 2:00 AM — Nov 24 2:30 AM, Boulogne-Billancourt, Weather by CustomWeather, © 2014

Note: Actual official high and low records may vary slightly from our data, if they occured in-between our weather recording intervals... More about our weather records

Advertising

Boulogne-Billancourt weather history for previous 24 hours

 ConditionsComfort  
Time TempWeatherWind HumidityBarometerVisibility
2:30 AM
Nov 24
52 °FPassing clouds.7 mph88%30.12 "HgN/A
2:00 AM52 °FPassing clouds.9 mph88%30.09 "HgN/A
1:30 AM52 °FPassing clouds.7 mph88%30.09 "HgN/A
12:30 AM54 °FLow clouds.8 mph88%30.09 "HgN/A
12:00 AM54 °FPassing clouds.9 mph88%30.07 "HgN/A
11:30 PM
Nov 23
55 °FPassing clouds.12 mph88%30.07 "Hg4 mi
11:00 PM55 °FPassing clouds.7 mph94%30.07 "HgN/A
10:30 PM55 °FPartly cloudy.7 mph94%30.04 "HgN/A
10:00 PM55 °FClear.7 mph88%30.04 "Hg10 mi
9:30 PM54 °FClear.6 mph94%30.01 "Hg10 mi
9:00 PM52 °FClear.No wind94%30.01 "Hg10 mi
8:30 PM52 °FClear.3 mph94%30.01 "Hg10 mi
8:00 PM52 °FClear.2 mph94%29.98 "Hg10 mi
7:30 PM54 °FClear.No wind88%29.98 "Hg10 mi
7:00 PM54 °FClear.2 mph94%29.98 "Hg10 mi
6:30 PM52 °FClear.No wind94%29.98 "Hg10 mi
6:00 PM54 °FClear.2 mph82%29.98 "Hg10 mi
5:30 PM55 °FClear.3 mph82%29.95 "Hg10 mi
5:00 PM57 °FSunny.3 mph82%29.95 "Hg10 mi
4:30 PM59 °FSunny.5 mph77%29.95 "Hg10 mi
4:00 PM59 °FSunny.5 mph77%29.95 "Hg10 mi
3:30 PM59 °FSunny.3 mph77%29.95 "Hg10 mi
3:00 PM59 °FSunny.1 mph77%29.95 "Hg10 mi
2:30 PM59 °FSunny.5 mph77%29.95 "Hg10 mi
2:00 PM59 °FSunny.3 mph77%29.95 "Hg10 mi
1:30 PM57 °FSunny.6 mph77%29.95 "Hg10 mi
1:00 PM57 °FPassing clouds.6 mph82%29.95 "HgN/A
12:30 PM57 °FPassing clouds.6 mph77%29.98 "HgN/A
12:00 PM57 °FPassing clouds.5 mph77%29.98 "HgN/A
11:30 AM55 °FPassing clouds.5 mph82%30.01 "HgN/A
11:00 AM54 °FSunny.5 mph88%29.98 "Hg10 mi
10:30 AM52 °FPassing clouds.3 mph94%30.01 "HgN/A
10:00 AM50 °FSunny.No wind94%30.01 "Hg10 mi
9:30 AM48 °FPartly sunny.No wind100%30.01 "Hg6 mi
9:00 AM45 °FQuite cool.1 mph100%29.98 "Hg4 mi
8:30 AM45 °FQuite cool.No wind93%30.01 "Hg4 mi
8:00 AM43 °FQuite cool.No wind93%30.01 "Hg4 mi
7:30 AM45 °FLight fog.2 mph93%29.98 "Hg4 mi
7:00 AM46 °FCool.2 mph100%30.01 "Hg4 mi
6:30 AM46 °FCool.No wind100%29.98 "Hg4 mi
6:00 AM46 °FCool.1 mph100%29.98 "Hg4 mi
5:30 AM45 °FQuite cool.No wind100%30.01 "Hg3 mi
5:00 AM45 °FQuite cool.No wind93%30.01 "Hg3 mi
4:30 AM46 °FCool.No wind93%29.98 "Hg4 mi
4:00 AM48 °FCool.No wind100%30.01 "Hg5 mi
3:30 AM48 °FCool.No wind94%30.01 "Hg5 mi
3:00 AM46 °FCool.No wind93%30.01 "Hg5 mi
Weather by CustomWeather, © 2014

See weather overviewHow to use our weather pages